• In Belgium
  • List of Countries
  • For 7 days
  • Water Temperature
  • Satellite Maps
  • Weather Map
  • Weather Widgets
  • user-avatar
    Login

    Hourly Weather Perth

    Today, 13 December, Wednesday

    Time Temperature Precipitation Wind Pressure Humidity
    00:00 +20°C° 0 mm 6 mps 759 mmHg 72%
    01:00 +19°C° 0 mm 6 mps 759 mmHg 74%
    02:00 +19°C° 0 mm 6 mps 759 mmHg 75%
    03:00 +17°C° 0 mm 5 mps 759 mmHg 76%
    04:00 +16°C° 0 mm 5 mps 759 mmHg 77%
    05:00 +16°C° 0 mm 5 mps 760 mmHg 78%
    06:00 +18°C° 0 mm 4 mps 760 mmHg 70%
    07:00 +20°C° 0 mm 4 mps 760 mmHg 62%
    08:00 +22°C° 0 mm 4 mps 761 mmHg 52%
    09:00 +23°C° 0 mm 4 mps 761 mmHg 46%
    10:00 +26°C° 0 mm 4 mps 761 mmHg 41%
    11:00 +27°C° 0 mm 4 mps 761 mmHg 36%
    12:00 +28°C° 0 mm 5 mps 760 mmHg 35%
    13:00 +29°C° 0 mm 5 mps 760 mmHg 35%
    14:00 +28°C° 0 mm 5 mps 760 mmHg 37%
    15:00 +28°C° 0 mm 6 mps 760 mmHg 39%
    16:00 +27°C° 0 mm 6 mps 760 mmHg 41%
    17:00 +27°C° 0 mm 6 mps 760 mmHg 43%
    18:00 +24°C° 0 mm 6 mps 760 mmHg 48%
    19:00 +23°C° 0 mm 6 mps 760 mmHg 53%
    20:00 +21°C° 0 mm 6 mps 761 mmHg 58%
    21:00 +21°C° 0 mm 6 mps 761 mmHg 59%
    22:00 +20°C° 0 mm 5 mps 761 mmHg 60%
    23:00 +20°C° 0 mm 5 mps 761 mmHg 61%

    Tomorrow, 14 December, Thursday

    Time Temperature Precipitation Wind Pressure Humidity
    00:00 +20°C° 0 mm 5 mps 761 mmHg 61%
    01:00 +19°C° 0 mm 5 mps 761 mmHg 61%
    02:00 +19°C° 0 mm 5 mps 761 mmHg 61%
    03:00 +19°C° 0 mm 4 mps 761 mmHg 62%
    04:00 +18°C° 0 mm 4 mps 761 mmHg 63%
    05:00 +18°C° 0 mm 4 mps 761 mmHg 65%
    06:00 +19°C° 0 mm 4 mps 761 mmHg 59%
    07:00 +21°C° 0 mm 4 mps 761 mmHg 54%
    08:00 +23°C° 0 mm 4 mps 761 mmHg 48%
    09:00 +26°C° 0 mm 3 mps 761 mmHg 42%
    10:00 +28°C° 0 mm 3 mps 761 mmHg 36%
    11:00 +30°C° 0 mm 2 mps 760 mmHg 30%
    12:00 +31°C° 0 mm 3 mps 760 mmHg 29%
    13:00 +33°C° 0 mm 4 mps 759 mmHg 29%
    14:00 +34°C° 0 mm 4 mps 759 mmHg 28%
    15:00 +32°C° 0 mm 5 mps 758 mmHg 32%
    16:00 +30°C° 0 mm 6 mps 758 mmHg 35%
    17:00 +29°C° 0 mm 6 mps 758 mmHg 39%
    18:00 +27°C° 0 mm 6 mps 758 mmHg 46%
    19:00 +24°C° 0 mm 6 mps 758 mmHg 54%
    20:00 +22°C° 0 mm 6 mps 758 mmHg 61%
    21:00 +22°C° 0 mm 6 mps 758 mmHg 63%
    22:00 +21°C° 0 mm 5 mps 758 mmHg 64%
    23:00 +21°C° 0 mm 5 mps 759 mmHg 66%

    Day after tomorrow, 15 December, Friday

    Time Temperature Precipitation Wind Pressure Humidity
    00:00 +20°C° 0 mm 5 mps 758 mmHg 66%
    01:00 +20°C° 0 mm 5 mps 758 mmHg 67%
    02:00 +20°C° 0 mm 5 mps 757 mmHg 68%
    03:00 +20°C° 0 mm 4 mps 757 mmHg 70%
    04:00 +19°C° 0 mm 4 mps 757 mmHg 72%
    05:00 +19°C° 0 mm 4 mps 757 mmHg 74%
    06:00 +21°C° 0 mm 4 mps 757 mmHg 67%
    07:00 +22°C° 0 mm 4 mps 757 mmHg 60%
    08:00 +25°C° 0 mm 3 mps 757 mmHg 54%
    09:00 +28°C° 0 mm 3 mps 757 mmHg 46%
    10:00 +30°C° 0 mm 4 mps 757 mmHg 38%
    11:00 +34°C° 0 mm 4 mps 756 mmHg 30%
    12:00 +34°C° 0 mm 4 mps 756 mmHg 29%
    13:00 +35°C° 0 mm 5 mps 755 mmHg 28%
    14:00 +35°C° 0 mm 6 mps 754 mmHg 28%
    15:00 +34°C° 0 mm 6 mps 754 mmHg 30%
    16:00 +33°C° 0 mm 6 mps 754 mmHg 33%
    17:00 +32°C° 0 mm 7 mps 753 mmHg 35%
    18:00 +29°C° 0 mm 6 mps 754 mmHg 41%
    19:00 +27°C° 0 mm 6 mps 754 mmHg 47%
    20:00 +24°C° 0 mm 6 mps 754 mmHg 53%
    21:00 +24°C° 0 mm 6 mps 754 mmHg 53%
    22:00 +23°C° 0 mm 5 mps 755 mmHg 53%
    23:00 +23°C° 0 mm 5 mps 755 mmHg 52%

    16 December, Saturday

    Time Temperature Precipitation Wind Pressure Humidity
    00:00 +22°C° 0 mm 5 mps 755 mmHg 55%
    01:00 +22°C° 0 mm 5 mps 755 mmHg 58%
    02:00 +22°C° 0 mm 5 mps 755 mmHg 61%
    03:00 +21°C° 0 mm 5 mps 755 mmHg 62%
    04:00 +21°C° 0 mm 4 mps 755 mmHg 64%
    05:00 +20°C° 0 mm 4 mps 754 mmHg 66%
    06:00 +21°C° 0 mm 4 mps 755 mmHg 60%
    07:00 +24°C° 0 mm 3 mps 755 mmHg 55%
    08:00 +25°C° 0 mm 3 mps 755 mmHg 50%
    09:00 +28°C° 0 mm 3 mps 755 mmHg 44%
    10:00 +31°C° 0 mm 3 mps 755 mmHg 38%
    11:00 +34°C° 0 mm 3 mps 754 mmHg 31%
    12:00 +34°C° 0 mm 4 mps 754 mmHg 32%
    13:00 +34°C° 0 mm 5 mps 753 mmHg 32%
    14:00 +33°C° 0 mm 6 mps 753 mmHg 32%
    15:00 +32°C° 0 mm 6 mps 752 mmHg 37%
    16:00 +29°C° 0 mm 7 mps 752 mmHg 41%
    17:00 +27°C° 0 mm 7 mps 752 mmHg 46%
    18:00 +26°C° 0 mm 7 mps 753 mmHg 56%
    19:00 +23°C° 0 mm 6 mps 753 mmHg 66%
    20:00 +21°C° 0 mm 6 mps 754 mmHg 76%
    21:00 +20°C° 0 mm 6 mps 754 mmHg 75%
    22:00 +20°C° 0 mm 6 mps 754 mmHg 74%
    23:00 +20°C° 0 mm 5 mps 754 mmHg 73%

    17 December, Sunday

    Time Temperature Precipitation Wind Pressure Humidity
    00:00 +20°C° 0.1 mm 5 mps 754 mmHg 75%
    01:00 +19°C° 0.1 mm 5 mps 753 mmHg 76%
    02:00 +19°C° 0.1 mm 5 mps 753 mmHg 78%
    03:00 +19°C° 0.2 mm 6 mps 753 mmHg 76%
    04:00 +19°C° 0.2 mm 6 mps 753 mmHg 74%
    05:00 +18°C° 0.2 mm 7 mps 753 mmHg 73%
    06:00 +18°C° 0.1 mm 7 mps 753 mmHg 70%
    07:00 +18°C° 0.1 mm 7 mps 753 mmHg 68%
    08:00 +18°C° 0.1 mm 8 mps 754 mmHg 65%
    09:00 +18°C° 0.1 mm 8 mps 754 mmHg 63%
    10:00 +18°C° 0.1 mm 8 mps 754 mmHg 60%
    11:00 +17°C° 0.1 mm 8 mps 754 mmHg 57%
    12:00 +17°C° 0.2 mm 8 mps 754 mmHg 57%
    13:00 +17°C° 0.2 mm 8 mps 754 mmHg 56%
    14:00 +17°C° 0.2 mm 8 mps 754 mmHg 55%
    15:00 +17°C° 0.1 mm 9 mps 754 mmHg 52%
    16:00 +18°C° 0.1 mm 9 mps 754 mmHg 49%
    17:00 +18°C° 0.1 mm 9 mps 754 mmHg 46%
    18:00 +17°C° 0.1 mm 9 mps 754 mmHg 50%
    19:00 +17°C° 0.1 mm 8 mps 754 mmHg 54%
    20:00 +16°C° 0.1 mm 8 mps 755 mmHg 58%
    21:00 +16°C° 0.2 mm 8 mps 755 mmHg 60%
    22:00 +16°C° 0.2 mm 8 mps 755 mmHg 62%
    23:00 +16°C° 0.2 mm 9 mps 755 mmHg 63%

    18 December, Monday

    Time Temperature Precipitation Wind Pressure Humidity
    00:00 +16°C° 0.2 mm 9 mps 754 mmHg 64%
    01:00 +16°C° 0.2 mm 9 mps 754 mmHg 65%
    02:00 +16°C° 0.2 mm 9 mps 753 mmHg 65%
    03:00 +16°C° 0.2 mm 9 mps 753 mmHg 66%
    04:00 +16°C° 0.2 mm 9 mps 753 mmHg 67%
    05:00 +16°C° 0.2 mm 8 mps 753 mmHg 68%
    06:00 +16°C° 0.2 mm 9 mps 754 mmHg 68%
    07:00 +16°C° 0.2 mm 9 mps 755 mmHg 68%
    08:00 +17°C° 0.2 mm 9 mps 755 mmHg 67%
    09:00 +18°C° 0.1 mm 9 mps 755 mmHg 64%
    10:00 +19°C° 0.1 mm 10 mps 756 mmHg 60%
    11:00 +21°C° 0.1 mm 10 mps 756 mmHg 57%
    12:00 +21°C° 0.1 mm 9 mps 756 mmHg 57%
    13:00 +21°C° 0.1 mm 9 mps 756 mmHg 56%
    14:00 +21°C° 0.1 mm 9 mps 756 mmHg 56%
    15:00 +20°C° 0 mm 8 mps 756 mmHg 56%
    16:00 +20°C° 0 mm 8 mps 756 mmHg 57%
    17:00 +20°C° 0 mm 8 mps 757 mmHg 57%
    18:00 +18°C° 0 mm 7 mps 757 mmHg 61%
    19:00 +19°C° 0 mm 6 mps 758 mmHg 66%
    20:00 +17°C° 0 mm 5 mps 758 mmHg 70%
    21:00 +16°C° 0 mm 5 mps 758 mmHg 72%
    22:00 +16°C° 0 mm 5 mps 759 mmHg 74%
    23:00 +15°C° 0 mm 4 mps 759 mmHg 76%
    Show more